Wetbulb
70.05 72.73 75.15 73.70 72.23 71.79 71.34 71.93 72.47 72.98 73.15 73.12 72.68 72.76 73.07 73.86 74.29 74.71 74.79 74.67 74.63 74.56 74.51 74.51 74.20 74.51 74.16 74.04 73.99 73.77 73.46 73.35 72.43 71.89 71.64 71.84 72.61 73.23 73.09 74.05 73.83 72.91 74.45
71.22 73.55 74.97 73.33 71.81 70.89 70.36 71.19 71.82 71.81 71.98 71.97 71.71 71.20 71.24 71.27 72.57 72.81 73.43 73.68 73.94 74.06 74.52 74.46 74.07 74.07 74.12 73.97 73.89 74.02 73.50 73.32 72.70 71.63 71.12 71.90 72.21 71.83 72.02 72.72 73.58 72.87 74.34
72.28 73.11 73.24 73.35 72.88 71.49 70.83 70.35 70.64 71.04 71.20 70.38 69.81 69.46 69.47 69.69 70.21 71.20 71.66 72.09 72.58 72.89 74.05 73.75 73.82 73.89 73.83 73.94 74.02 73.66 73.69 73.60 73.33 71.99 71.01 67.38 68.14 71.00 71.65 71.23 72.75 73.63 73.89
72.55 72.69 71.82 73.26 72.93 71.71 71.06 70.41 70.06 70.61 70.51 69.95 69.23 68.95 68.93 69.23 69.20 69.27 69.40 69.78 70.22 71.02 71.87 72.96 73.18 73.22 73.55 73.59 73.57 73.73 73.72 73.25 73.11 72.63 68.87 68.90 69.18 71.39 71.02 71.37 71.77 72.57 73.02
72.04 72.27 71.57 73.43 73.27 71.87 71.35 71.22 70.63 70.03 69.91 69.99 69.31 69.04 70.52 71.01 71.13 70.72 69.93 69.58 69.00 68.58 68.54 69.18 70.61 71.15 70.83 72.32 72.38 72.88 72.86 71.79 72.77 70.98 68.25 67.89 67.95 70.63 71.19 70.97 71.28 71.81 71.87
71.22 70.60 73.09 73.37 73.13 72.44 72.13 71.87 71.66 71.50 71.09 71.52 71.00 70.05 71.20 71.50 71.53 71.87 72.13 71.61 71.39 71.36 70.78 70.06 69.27 68.75 68.78 68.72 68.51 68.69 69.39 69.94 68.86 68.93 69.63 70.32 68.53 71.69 71.32 70.87 70.76 71.42 71.68
70.72 71.40 71.39 73.33 73.07 72.74 72.44 72.10 71.93 72.04 71.76 71.47 71.80 71.96 71.77 72.05 72.49 72.85 72.18 72.06 71.10 71.29 70.94 70.56 70.24 69.97 69.78 69.69 69.96 69.74 68.34 68.68 66.52 68.37 68.91 69.03 70.41 72.18 71.56 70.99 70.55 70.55 71.15
71.01 71.10 71.33 73.36 73.50 73.08 72.60 72.67 73.04 73.26 72.88 72.63 72.20 72.04 72.24 72.21 72.28 71.70 71.12 70.50 69.68 68.94 68.61 68.86 68.70 68.34 69.04 69.83 70.08 70.07 70.29 68.96 65.27 68.04 68.36 69.04 71.65 71.73 72.14 70.92 70.64 70.28 70.28
71.27 70.32 70.55 71.57 73.52 74.06 73.80 73.42 73.04 72.80 72.76 72.49 72.16 71.87 71.24 70.22 69.67 68.65 67.73 65.90 65.07 64.97 64.94 65.78 65.40 65.13 67.81 67.96 67.46 67.71 68.49 69.49 60.76 63.76 67.63 67.04 71.81 70.56 71.06 71.17 70.79 70.20 69.97
70.47 70.21 69.46 70.51 71.24 71.30 71.51 73.15 72.79 72.37 72.26 71.77 70.45 68.99 67.32 64.72 64.72 64.10 63.58 64.23 63.63 63.90 63.72 63.36 63.20 62.80 62.67 63.07 63.32 62.92 61.59 62.52 61.35 65.26 65.58 66.39 69.47 68.16 68.61 69.14 70.47 70.72 69.80
69.37 69.00 69.67 69.85 70.42 69.72 69.61 70.98 71.02 70.46 70.83 70.85 67.95 66.80 61.19 54.94 55.65 57.43 63.77 63.39 62.33 62.27 62.19 61.83 61.30 60.83 58.70 58.46 60.35 59.84 56.13 50.46 60.21 62.39 63.66 69.48 68.83 68.43 68.04 67.75 67.74 69.09 70.94
66.44 68.15 68.72 69.37 68.37 68.43 69.81 66.44 62.77 62.02 59.81 57.66 62.54 52.33 51.29 52.13 53.60 55.68 58.29 60.35 60.44 59.35 59.85 59.66 59.24 57.57 52.81 46.28 47.04 52.01 46.60 46.61 49.26 60.19 63.34 68.14 65.36 64.62 64.89 66.14 67.28 67.46 68.27
66.49 68.13 68.57 68.17 67.42 65.63 64.08 58.83 55.10 49.75 47.96 47.90 49.19 47.99 47.99 48.74 47.23 46.76 46.25 45.78 45.76 52.64 45.83 47.53 46.29 46.06 45.29 45.56 45.56 44.76 45.29 44.92 44.66 48.22 61.26 64.99 63.61 61.81 60.97 61.45 63.27 66.36 67.00
66.26 67.47 68.21 67.42 63.53 60.01 58.67 54.91 53.52 47.01 46.39 45.99 46.53 46.90 45.67 44.75 44.42 44.34 44.90 44.92 44.79 44.22 43.79 43.66 43.93 44.59 44.96 45.34 43.57 43.85 43.43 43.79 44.05 45.43 48.20 58.79 61.19 62.05 61.41 60.51 60.79 61.82 64.63
65.55 66.75 67.30 64.13 58.96 57.26 53.41 49.16 47.61 47.14 45.82 45.79 46.08 46.70 45.72 45.17 44.38 45.00 44.50 44.65 43.95 44.24 43.79 43.46 43.62 43.84 43.87 44.56 44.67 43.94 43.55 43.22 43.64 45.20 45.13 55.45 58.73 60.65 60.95 60.27 60.68 60.45 61.17
65.33 65.63 63.85 60.48 54.11 49.22 47.24 46.59 46.34 46.34 45.74 45.76 45.51 46.08 46.48 45.77 45.25 45.22 44.50 44.44 44.18 44.10 43.75 43.69 43.49 43.32 43.11 43.31 44.41 44.28 43.22 42.77 43.36 43.71 44.82 45.13 55.82 58.16 60.13 59.88 59.67 59.24 60.37
62.86 60.08 59.21 53.57 49.33 46.97 46.68 47.08 46.92 47.04 46.98 45.82 46.25 47.14 47.13 46.65 45.51 44.65 44.16 43.97 43.55 44.52 44.75 44.41 44.26 43.86 43.75 44.65 42.58 43.59 43.50 42.74 43.40 43.26 44.27 44.82 46.14 52.81 56.34 58.87 59.19 58.83 58.91
58.93 57.76 55.31 52.75 48.25 47.07 46.84 46.75 47.09 47.25 46.52 45.88 45.58 46.12 47.24 47.37 46.44 45.10 44.80 44.08 44.39 45.07 44.75 43.88 43.33 42.93 42.64 42.19 41.61 42.63 42.26 42.66 42.64 42.73 43.72 43.32 43.58 46.05 50.19 56.59 60.01 58.01 58.08
55.20 50.53 48.53 48.10 47.62 47.10 46.10 46.04 46.36 46.36 45.71 45.09 44.90 45.65 46.59 47.89 47.38 45.37 44.73 44.62 45.21 44.68 44.07 43.55 43.14 42.39 41.85 42.05 43.57 42.91 41.78 41.46 41.16 44.34 41.05 42.65 43.73 44.20 45.10 51.48 57.40 59.39 60.23
50.22 48.70 47.77 47.20 46.25 45.61 44.82 44.35 44.53 45.24 45.02 44.98 45.10 45.65 46.76 46.91 47.21 45.76 45.22 44.88 44.34 43.74 43.15 42.50 42.07 42.15 41.55 41.30 44.60 43.26 40.81 40.73 39.68 39.74 39.91 42.80 42.18 42.86 42.57 43.70 44.77 47.67 55.69
48.23 48.23 47.13 46.32 45.10 45.60 44.01 43.64 43.23 43.80 43.97 44.38 45.48 47.02 46.38 46.20 46.39 45.13 44.87 44.20 43.93 43.29 42.41 42.45 41.80 41.17 40.89 40.36 38.79 38.71 38.41 39.52 37.70 38.91 39.34 39.13 41.06 41.82 41.63 42.62 42.34 42.63 44.45
47.77 47.76 45.89 46.42 44.96 44.89 45.17 44.24 44.29 43.61 43.90 44.57 45.47 45.22 46.10 45.91 45.90 45.25 44.22 44.06 43.17 42.69 41.52 41.22 40.62 39.56 39.75 39.38 37.43 34.90 33.87 36.53 38.15 40.95 41.17 39.68 39.62 39.92 42.50 42.50 40.54 41.36 41.61
45.92 46.02 45.73 45.17 45.06 45.12 45.43 45.35 45.30 45.46 45.08 44.85 44.93 44.78 45.38 45.80 45.65 45.28 43.98 43.35 42.50 41.48 41.26 40.29 39.98 39.18 37.78 38.07 37.61 36.94 32.88 30.88 33.65 37.09 38.07 39.00 37.62 39.18 38.94 39.64 40.85 41.24 41.29
46.09 46.76 46.64 45.87 45.54 46.11 45.74 45.81 45.23 44.62 43.61 44.04 44.42 45.13 45.83 45.85 45.39 45.20 44.15 42.81 41.62 40.89 40.23 39.70 41.59 38.73 37.28 35.99 36.57 39.81 36.44 35.78 32.99 32.35 35.28 36.65 38.51 38.53 38.00 38.48 39.49 40.20 40.06
45.14 45.10 45.31 44.93 44.79 45.54 45.01 45.96 45.12 43.83 44.22 44.81 45.17 44.80 44.18 44.30 44.01 44.06 42.80 41.76 41.08 40.26 39.70 39.56 38.71 37.64 37.09 36.40 35.72 35.22 34.22 34.36 33.86 32.85 33.42 34.42 37.03 36.92 37.80 38.00 38.48 38.69 39.55
44.51 44.60 44.65 44.56 44.76 45.10 45.00 44.69 44.70 44.28 44.39 44.17 43.29 43.19 42.57 42.35 42.30 42.42 42.97 41.38 40.82 40.05 39.52 39.32 38.40 37.30 36.93 35.94 35.90 35.41 35.03 34.04 33.00 32.27 30.64 33.21 34.54 36.19 36.56 37.78 37.65 38.40 39.63
MSLP
1015.42 1015.14 1015.28 1015.49 1015.66 1015.78 1015.86 1015.90 1015.92 1015.97 1015.97 1015.99 1016.03 1016.09 1016.08 1015.98 1015.87 1015.79 1015.72 1015.62 1015.55 1015.51 1015.42 1015.40 1015.31 1015.24 1015.22 1015.14 1015.06 1014.98 1014.99 1014.93 1014.88 1014.78 1014.62 1014.59 1014.45 1014.25 1014.13 1013.93 1013.76 1013.56 1013.44
1014.86 1015.13 1015.27 1015.54 1015.71 1015.87 1015.95 1016.09 1016.18 1016.25 1016.28 1016.33 1016.36 1016.41 1016.41 1016.38 1016.27 1016.14 1016.10 1016.03 1015.87 1015.81 1015.75 1015.67 1015.65 1015.58 1015.48 1015.44 1015.31 1015.15 1015.05 1015.06 1015.06 1015.07 1014.98 1014.83 1014.75 1014.63 1014.54 1014.44 1014.09 1013.95 1013.75
1014.87 1015.07 1015.32 1015.58 1015.80 1015.97 1016.13 1016.28 1016.35 1016.42 1016.47 1016.52 1016.53 1016.59 1016.62 1016.67 1016.67 1016.62 1016.59 1016.50 1016.31 1016.17 1016.11 1016.09 1015.99 1015.90 1015.78 1015.65 1015.54 1015.32 1015.22 1015.17 1015.17 1015.24 1015.20 1015.12 1015.13 1014.97 1014.90 1014.80 1014.63 1014.39 1014.30
1014.76 1015.16 1015.44 1015.64 1015.86 1016.08 1016.25 1016.42 1016.53 1016.59 1016.67 1016.66 1016.65 1016.76 1016.83 1016.87 1016.91 1016.83 1016.83 1016.80 1016.71 1016.64 1016.62 1016.46 1016.32 1016.25 1016.13 1015.99 1015.87 1015.71 1015.51 1015.37 1015.19 1015.27 1015.43 1015.39 1015.29 1015.29 1015.25 1015.18 1015.05 1014.95 1014.79
1014.96 1015.27 1015.46 1015.65 1015.87 1016.16 1016.34 1016.47 1016.63 1016.74 1016.84 1016.82 1016.81 1016.92 1016.95 1016.97 1017.03 1017.03 1017.03 1017.04 1017.02 1016.97 1016.91 1016.82 1016.77 1016.65 1016.51 1016.34 1016.18 1015.99 1015.91 1015.66 1015.45 1015.65 1015.79 1015.76 1015.64 1015.56 1015.55 1015.58 1015.52 1015.34 1015.15
1015.08 1015.35 1015.50 1015.75 1016.01 1016.25 1016.45 1016.60 1016.73 1016.79 1016.88 1016.90 1016.96 1017.05 1017.07 1017.05 1017.11 1017.08 1017.11 1017.17 1017.19 1017.18 1017.16 1017.07 1017.03 1016.94 1016.81 1016.63 1016.48 1016.32 1016.27 1016.00 1015.95 1015.99 1016.07 1015.94 1015.89 1015.82 1015.80 1015.82 1015.83 1015.75 1015.61
1015.31 1015.44 1015.56 1015.78 1016.04 1016.27 1016.48 1016.68 1016.80 1016.82 1016.90 1016.99 1017.08 1017.09 1017.02 1017.12 1017.15 1017.18 1017.29 1017.40 1017.48 1017.52 1017.46 1017.39 1017.28 1017.19 1017.02 1016.86 1016.72 1016.61 1016.45 1016.40 1016.24 1016.36 1016.38 1016.29 1016.08 1016.00 1016.09 1016.08 1016.05 1016.05 1016.03
1015.03 1015.36 1015.52 1015.74 1016.02 1016.25 1016.49 1016.69 1016.78 1016.87 1017.04 1017.07 1017.20 1017.27 1017.34 1017.40 1017.47 1017.57 1017.67 1017.79 1017.84 1017.74 1017.67 1017.63 1017.51 1017.34 1017.16 1017.07 1016.90 1016.74 1016.66 1016.76 1016.67 1016.58 1016.60 1016.51 1016.36 1016.21 1016.20 1016.29 1016.27 1016.23 1016.22
1014.95 1015.29 1015.62 1015.77 1015.99 1016.24 1016.48 1016.69 1016.80 1017.00 1017.21 1017.19 1017.33 1017.57 1017.67 1017.83 1017.92 1017.99 1018.07 1018.10 1018.00 1017.86 1017.80 1017.80 1017.75 1017.66 1017.41 1017.31 1017.15 1016.94 1016.77 1016.79 1016.84 1016.84 1016.70 1016.70 1016.48 1016.47 1016.44 1016.40 1016.37 1016.43 1016.36
1015.15 1015.19 1015.62 1015.82 1016.07 1016.36 1016.57 1016.78 1017.02 1017.17 1017.34 1017.47 1017.66 1017.89 1018.02 1018.14 1018.27 1018.33 1018.44 1018.33 1018.25 1018.09 1018.07 1018.12 1018.09 1018.03 1017.95 1017.84 1017.68 1017.52 1017.38 1017.06 1017.08 1017.23 1017.28 1017.03 1016.81 1016.76 1016.71 1016.63 1016.57 1016.45 1016.46
1015.23 1015.46 1015.60 1015.94 1016.21 1016.48 1016.61 1016.88 1017.12 1017.28 1017.54 1017.77 1017.95 1018.08 1018.43 1018.67 1018.78 1018.82 1018.71 1018.63 1018.56 1018.51 1018.51 1018.57 1018.57 1018.44 1018.45 1018.39 1018.20 1018.16 1018.12 1018.02 1017.74 1017.76 1017.62 1017.29 1017.12 1016.98 1016.92 1016.89 1016.77 1016.63 1016.54
1015.13 1015.54 1015.84 1015.93 1016.30 1016.47 1016.71 1017.07 1017.40 1017.65 1017.95 1018.11 1018.23 1018.60 1018.83 1018.96 1019.08 1019.23 1019.20 1019.12 1019.05 1019.11 1019.10 1019.09 1019.02 1018.90 1018.89 1019.01 1018.84 1018.62 1018.79 1018.79 1018.51 1018.26 1018.00 1017.58 1017.31 1017.16 1017.06 1017.01 1016.98 1016.84 1016.67
1014.36 1015.15 1015.84 1016.07 1016.23 1016.42 1016.66 1017.22 1017.68 1018.03 1018.17 1018.39 1018.58 1018.83 1019.01 1019.30 1019.56 1019.75 1019.77 1019.85 1019.81 1019.73 1019.83 1019.68 1019.58 1019.54 1019.44 1019.43 1019.37 1019.23 1019.10 1019.06 1019.17 1018.86 1018.51 1018.11 1017.70 1017.36 1017.16 1017.09 1017.05 1016.99 1016.85
1014.59 1015.05 1015.71 1016.01 1016.32 1016.72 1016.95 1017.38 1017.69 1018.20 1018.44 1018.83 1018.95 1019.07 1019.32 1019.83 1020.04 1020.21 1020.28 1020.37 1020.34 1020.34 1020.24 1020.20 1020.14 1020.02 1019.92 1019.86 1019.82 1019.67 1019.54 1019.37 1019.20 1019.15 1018.94 1018.46 1018.05 1017.61 1017.35 1017.18 1017.13 1017.04 1017.03
1014.52 1015.11 1015.64 1016.10 1016.53 1016.83 1017.29 1017.59 1017.92 1018.31 1018.47 1018.83 1019.05 1019.25 1019.39 1019.92 1020.26 1020.37 1020.55 1020.56 1020.55 1020.47 1020.51 1020.50 1020.51 1020.44 1020.42 1020.26 1020.10 1020.07 1019.91 1019.72 1019.41 1019.15 1018.93 1018.55 1018.25 1017.84 1017.43 1017.23 1017.07 1017.09 1017.03
1014.40 1014.97 1015.49 1016.02 1016.63 1016.97 1017.41 1017.72 1018.17 1018.38 1018.70 1018.97 1019.26 1019.46 1019.61 1019.87 1020.19 1020.46 1020.68 1020.77 1020.81 1020.73 1020.71 1020.75 1020.83 1020.89 1020.82 1020.70 1020.48 1020.29 1020.13 1019.90 1019.66 1019.35 1019.02 1018.78 1018.37 1018.13 1017.77 1017.30 1017.13 1017.12 1017.00
1014.42 1015.04 1015.51 1016.11 1016.54 1017.14 1017.54 1017.99 1018.28 1018.59 1018.85 1019.30 1019.56 1019.60 1019.79 1020.00 1020.22 1020.51 1020.81 1020.92 1020.94 1020.82 1020.81 1020.85 1020.92 1020.93 1020.96 1020.86 1020.95 1020.54 1020.26 1019.97 1019.74 1019.50 1019.15 1018.84 1018.45 1018.09 1017.87 1017.64 1017.22 1017.06 1017.00
1014.28 1014.93 1015.75 1016.22 1016.91 1017.25 1017.57 1017.94 1018.28 1018.61 1019.06 1019.32 1019.52 1019.71 1019.82 1019.99 1020.16 1020.55 1020.83 1020.99 1020.95 1020.91 1021.01 1021.14 1021.24 1021.23 1021.27 1021.27 1021.10 1020.73 1020.40 1019.99 1019.75 1019.52 1019.21 1018.94 1018.65 1018.27 1017.96 1017.67 1017.34 1017.07 1017.08
1014.11 1014.96 1015.76 1016.30 1016.77 1017.26 1017.68 1018.08 1018.43 1018.74 1019.14 1019.43 1019.48 1019.66 1019.81 1019.96 1020.21 1020.48 1020.78 1020.89 1020.94 1021.07 1021.18 1021.28 1021.27 1021.29 1021.39 1021.24 1021.01 1020.73 1020.47 1020.05 1019.91 1019.50 1019.43 1019.12 1018.89 1018.59 1018.32 1018.00 1017.72 1017.54 1017.24
1014.03 1014.77 1015.56 1016.33 1016.77 1017.12 1017.67 1018.27 1018.77 1019.07 1019.35 1019.57 1019.57 1019.65 1019.72 1019.89 1020.08 1020.42 1020.69 1020.81 1020.91 1021.11 1021.28 1021.32 1021.43 1021.39 1021.50 1021.48 1021.25 1020.91 1020.41 1019.99 1019.98 1019.78 1019.58 1019.17 1019.05 1018.90 1018.80 1018.64 1018.42 1018.18 1017.72
1014.36 1014.87 1015.68 1016.20 1016.69 1016.99 1017.79 1018.67 1019.25 1019.50 1019.54 1019.71 1019.72 1019.51 1019.63 1019.75 1019.91 1020.26 1020.56 1020.76 1020.85 1021.06 1021.26 1021.45 1021.57 1021.67 1021.59 1021.56 1021.65 1021.24 1020.59 1019.84 1019.85 1019.72 1019.56 1019.44 1019.24 1019.14 1019.01 1018.87 1018.77 1018.52 1018.14
1014.42 1014.94 1015.46 1015.81 1016.43 1016.90 1017.31 1018.08 1018.67 1019.18 1019.41 1019.41 1019.53 1019.52 1019.55 1019.64 1019.79 1020.10 1020.32 1020.57 1020.72 1020.97 1021.14 1021.36 1021.59 1021.98 1022.09 1021.90 1022.24 1022.39 1021.75 1020.66 1020.01 1019.49 1019.37 1019.47 1019.37 1019.28 1018.80 1018.74 1018.79 1018.67 1018.49
1014.46 1014.86 1015.44 1015.71 1016.26 1016.78 1017.31 1018.02 1018.74 1019.22 1019.44 1019.62 1019.71 1019.70 1019.62 1019.64 1019.65 1019.71 1019.92 1020.23 1020.46 1020.73 1020.97 1021.09 1021.28 1021.68 1022.00 1021.98 1022.04 1022.41 1022.46 1022.36 1021.51 1020.06 1019.74 1019.52 1019.50 1019.38 1019.23 1018.95 1018.63 1018.54 1018.43
1014.58 1014.99 1015.25 1015.66 1016.24 1016.72 1017.06 1017.79 1018.44 1019.00 1019.49 1019.54 1019.41 1019.35 1019.38 1019.40 1019.44 1019.43 1019.59 1019.90 1020.20 1020.56 1020.72 1020.81 1020.99 1021.37 1021.88 1022.27 1022.23 1021.97 1022.07 1022.23 1022.28 1020.99 1020.17 1019.78 1019.58 1019.41 1019.28 1019.05 1018.72 1018.42 1018.24
1014.76 1015.16 1015.41 1015.82 1016.28 1016.61 1017.02 1017.42 1018.12 1018.72 1018.98 1019.01 1019.20 1019.35 1019.37 1019.36 1019.55 1019.66 1019.76 1019.96 1020.20 1020.44 1020.55 1020.74 1020.89 1021.18 1021.51 1021.87 1022.07 1022.15 1022.10 1021.94 1021.87 1021.97 1020.75 1019.84 1019.54 1019.23 1019.05 1018.82 1018.55 1018.30 1017.97
1015.28 1015.55 1015.89 1016.30 1016.59 1016.79 1017.23 1017.70 1018.05 1018.43 1018.67 1019.00 1019.28 1019.42 1019.41 1019.47 1019.63 1019.62 1019.69 1019.91 1020.03 1020.19 1020.42 1020.55 1020.68 1020.88 1020.98 1021.11 1021.26 1021.59 1021.81 1021.94 1021.71 1021.46 1020.91 1020.10 1019.46 1018.77 1018.45 1018.41 1018.22 1017.88 1017.57
Wind_Speed
3 6 14 12 12 11 12 12 11 11 11 12 13 14 13 13 14 16 16 15 15 14 15 15 15 15 14 14 13 12 11 12 15 16 18 17 17 18 18 17 14 10 14
9 7 14 13 13 12 12 12 12 12 12 12 13 13 13 13 12 13 13 14 14 14 14 14 14 13 13 13 12 11 12 10 13 14 15 14 14 16 17 17 16 13 15
11 10 10 14 13 13 13 13 12 12 12 12 13 13 13 13 13 13 12 13 13 13 14 14 13 13 12 12 14 12 13 14 10 11 12 5 7 15 16 15 15 16 15
12 9 8 15 13 13 13 13 12 12 12 12 13 13 13 14 13 13 13 13 13 13 12 12 13 13 12 12 13 13 14 17 7 9 4 5 8 15 14 15 15 14 15
11 9 10 15 14 13 12 12 12 12 12 12 13 13 13 13 13 13 13 13 13 13 13 12 11 11 11 11 12 14 16 16 11 8 4 5 5 11 14 13 12 13 13
10 7 13 15 14 13 12 12 12 12 12 12 12 12 12 12 12 12 13 13 13 13 13 12 11 11 10 11 13 14 14 14 8 6 4 6 6 12 12 12 11 12 12
9 8 11 16 14 13 12 12 12 12 12 11 11 11 11 11 12 14 13 14 13 13 12 12 11 10 10 11 13 14 13 13 6 5 5 4 5 10 9 9 10 10 10
14 11 11 16 15 14 13 12 11 11 11 11 11 10 12 13 15 14 13 13 12 12 12 12 11 11 9 11 14 15 14 11 6 5 4 3 7 10 9 6 7 7 8
13 11 9 9 12 14 13 12 11 11 11 12 13 12 13 13 13 13 12 12 12 12 14 13 14 15 16 14 15 16 16 11 3 2 4 3 8 8 8 9 4 4 5
10 11 7 6 7 7 7 12 10 11 12 13 14 14 14 13 13 13 10 9 11 15 15 15 16 17 17 17 18 18 17 15 5 5 3 3 7 8 8 8 9 4 1
9 8 8 8 7 6 7 8 10 12 12 12 12 12 10 5 6 8 12 13 15 16 16 17 18 19 18 17 19 18 15 6 5 4 2 6 8 9 9 8 7 7 5
12 10 8 9 8 7 6 6 5 4 4 3 4 6 4 5 4 6 11 14 16 16 17 17 17 17 13 5 6 12 5 6 5 4 3 6 8 8 8 8 7 7 6
16 11 9 9 9 7 6 4 3 3 3 4 6 5 5 5 4 4 4 4 4 11 5 7 7 5 8 6 6 5 6 5 3 4 6 13 10 8 8 8 6 6 7
13 12 12 8 6 4 4 4 5 4 4 4 4 6 5 4 5 4 4 4 5 3 6 5 4 6 7 7 7 7 7 5 4 2 5 12 13 10 10 7 7 7 7
12 12 11 9 6 6 5 4 5 4 4 5 5 5 5 5 5 4 4 4 4 3 4 5 5 5 6 7 6 7 7 7 7 4 3 15 15 13 9 7 8 6 7
12 11 10 9 7 7 6 6 5 4 5 5 4 5 6 5 5 5 4 4 4 3 3 4 4 5 4 5 6 7 6 6 6 7 4 6 15 15 13 9 8 5 8
11 11 10 10 8 8 8 6 5 5 5 5 4 5 7 5 6 5 4 3 2 3 5 5 5 4 5 5 6 6 5 7 6 6 5 4 7 12 13 13 9 7 7
13 13 9 10 9 8 8 6 5 5 4 4 4 4 6 6 6 5 4 2 2 3 3 3 3 3 3 4 4 5 5 5 6 6 5 5 5 4 9 13 11 4 6
13 12 10 10 10 9 8 5 5 6 5 4 4 4 5 6 6 5 3 2 2 3 2 2 2 3 3 4 5 4 5 5 5 5 5 6 6 6 5 13 15 13 10
13 12 12 8 9 8 6 5 3 3 2 3 4 4 6 5 6 5 3 3 2 2 2 3 3 2 1 3 4 6 6 5 3 3 3 5 5 6 6 7 6 7 15
10 13 12 11 7 7 3 4 2 3 2 1 4 6 6 5 6 5 3 3 2 2 1 1 1 3 3 3 3 4 4 6 3 1 2 3 5 5 4 4 4 4 5
12 12 9 10 9 5 5 3 3 3 2 2 2 4 5 6 6 5 5 4 4 2 1 1 1 1 2 2 1 1 5 6 4 6 6 3 4 4 7 6 5 5 5
9 9 9 10 9 7 7 4 3 3 3 2 1 2 4 6 6 6 6 5 5 3 3 2 2 4 2 2 2 2 3 3 4 3 4 5 5 5 5 6 6 5 4
8 7 8 8 9 7 8 5 5 5 4 3 3 3 4 5 6 6 6 5 4 3 3 2 2 2 3 3 2 3 3 3 3 7 2 3 6 4 5 5 6 6 5
8 8 7 7 6 4 7 7 6 4 4 3 2 3 3 2 2 3 2 3 3 2 2 3 2 2 3 3 3 2 3 3 4 5 10 6 5 4 4 5 5 5 6
4 5 5 6 3 3 5 4 6 7 6 3 2 1 1 1 2 3 3 2 2 1 2 3 3 4 5 4 3 4 4 4 3 5 5 6 10 5 5 5 5 5 5
Wind_Direction
168 155 137 128 122 117 111 106 103 91 84 84 82 75 70 63 71 67 67 70 72 72 72 71 70 63 61 58 56 56 68 75 74 73 73 61 53 53 49 50 53 50 63
147 149 135 130 123 117 113 110 104 99 93 89 85 83 79 76 71 71 65 66 68 72 65 68 67 59 55 52 49 50 64 100 89 84 78 66 58 55 51 45 53 60 55
142 139 136 133 125 117 113 111 111 105 99 95 91 88 85 81 82 81 77 71 67 65 63 67 65 60 50 37 30 35 46 47 132 94 83 83 65 59 56 53 50 51 61
139 140 132 135 127 120 118 114 111 109 106 100 95 93 91 88 85 82 77 74 72 69 62 57 57 56 45 36 30 22 28 27 129 104 67 69 73 65 59 54 52 54 48
137 142 145 139 133 125 123 119 114 112 108 102 100 99 95 91 89 86 82 77 74 70 63 58 53 46 36 25 22 19 29 28 69 84 64 78 72 68 65 61 54 50 53
138 135 139 135 129 129 125 122 119 116 111 106 104 104 102 98 95 94 93 85 79 73 66 62 57 49 39 26 20 21 29 26 49 72 55 86 79 73 70 66 57 54 55
135 143 138 137 135 131 128 126 122 119 116 112 110 110 101 95 86 83 83 79 73 67 62 57 51 43 35 31 24 24 27 35 60 72 64 42 89 78 68 68 67 60 54
148 150 146 142 138 132 131 132 130 116 114 116 109 98 94 85 77 73 73 71 68 66 62 59 51 37 26 30 25 20 17 43 39 82 68 59 76 69 64 64 68 67 63
148 143 145 144 145 133 125 121 119 115 115 110 106 97 90 88 85 84 79 75 69 68 59 56 53 42 42 38 25 17 17 36 86 174 91 58 70 68 56 42 51 72 67
148 146 145 138 128 131 127 125 121 118 114 113 112 106 102 91 88 83 60 72 72 59 62 50 48 41 38 40 39 37 31 20 40 62 41 37 59 63 58 41 27 21 95
152 155 145 139 133 128 125 132 125 122 122 123 117 116 98 90 78 51 63 66 62 60 55 53 47 45 41 36 35 32 35 13 31 36 20 48 53 51 49 41 28 13 351
160 163 153 147 144 147 139 126 112 91 101 120 124 103 106 105 89 70 64 61 61 57 55 51 48 43 38 24 20 26 27 23 16 0 351 33 30 26 27 25 16 11 5
168 159 156 160 159 156 143 134 111 92 93 84 104 107 98 88 74 66 59 43 41 53 38 40 34 31 31 29 17 20 16 26 25 2 346 344 348 357 4 5 360 354 356
160 159 157 159 153 139 125 130 125 121 117 103 101 109 103 92 78 70 67 57 57 38 52 44 36 28 27 22 24 11 9 4 6 4 350 351 341 325 338 352 353 348 341
151 157 157 151 144 141 125 122 114 128 104 111 97 96 104 102 97 95 78 70 63 50 49 42 38 32 23 13 11 11 0 357 353 349 341 345 343 341 327 321 327 342 342
145 154 151 144 138 127 124 120 126 117 114 97 95 109 103 114 115 100 89 73 58 55 52 55 46 31 24 14 2 356 351 351 340 338 337 340 347 342 334 321 320 318 327
147 144 139 135 132 130 126 129 128 133 115 109 110 105 110 111 109 110 99 77 74 60 60 41 29 27 22 5 358 344 341 333 333 335 331 327 322 330 328 319 301 299 323
135 140 143 140 141 132 130 128 123 123 121 126 128 122 119 124 128 118 114 108 96 69 62 46 32 14 13 8 337 329 327 323 326 328 333 341 336 340 338 339 308 286 314
142 141 135 140 142 137 130 127 133 136 139 154 146 143 142 138 141 126 129 139 106 84 62 21 19 55 359 342 328 324 316 307 325 333 345 353 1 19 7 356 3 354 330
141 140 137 141 145 131 116 104 87 111 132 161 175 173 165 157 150 137 144 152 132 92 40 26 22 354 331 315 321 318 305 307 344 335 337 346 355 7 5 8 9 356 359
133 136 147 144 147 137 123 125 115 173 164 193 208 191 187 179 174 167 163 155 138 121 132 94 24 5 325 10 352 321 312 298 328 5 312 335 347 354 359 360 345 341 335
154 143 143 149 158 160 137 139 133 151 188 177 205 214 207 193 184 174 174 191 184 162 186 191 124 356 299 10 35 344 340 330 344 308 354 322 351 332 343 346 340 345 336
150 150 156 165 164 164 150 109 79 67 48 59 234 235 225 211 201 196 193 189 192 176 210 218 193 169 212 301 175 170 335 276 319 316 312 314 340 337 327 331 329 333 329
171 167 163 160 164 178 155 145 149 165 166 214 199 225 245 231 229 216 208 206 197 190 208 222 184 169 138 240 324 221 220 176 259 315 320 312 293 304 305 301 309 314 316
160 178 167 157 171 165 167 169 167 169 194 189 183 218 223 263 324 312 258 198 205 201 217 218 257 232 191 193 198 256 250 240 223 226 287 297 286 256 268 267 274 283 293
108 111 125 141 133 140 154 170 185 194 196 184 198 222 357 38 57 57 87 130 154 179 225 234 235 231 239 218 219 220 207 217 230 230 256 265 282 274 241 250 257 262 271